Location: Port Dover
(42.7865°N, 80.2033°W)
Time: 21:30:43
(UTC-04:00)

Envisat - Visible Passes

Search period start: 23 October 2019 00:00
Search period end: 02 November 2019 00:00
Orbit: 764 x 766 km, 98.1° (Epoch: 23 October)

Date Brightness Start Highest point End Pass type
(mag) Time Alt. Az. Time Alt. Az. Time Alt. Az.
23 Oct 6.1 07:06:36 10° NE 07:09:54 17° E 07:13:09 10° SE visible
23 Oct 4.3 19:59:50 10° SSW 20:04:35 41° W 20:09:25 10° NNW visible
24 Oct 3.0 19:22:41 10° SSE 19:27:45 90° ENE 19:32:52 10° NNW visible
24 Oct 6.3 21:06:33 10° W 21:07:28 10° W 21:08:23 10° WNW visible
25 Oct 3.4 18:46:22 10° SE 18:51:07 42° ENE 18:55:52 10° N visible
25 Oct 5.3 20:26:13 10° SSW 20:30:16 24° W 20:34:22 10° NW visible
26 Oct 6.3 06:56:04 10° ENE 06:58:29 13° E 07:00:55 10° ESE visible
26 Oct 3.9 19:48:22 10° S 19:53:17 52° W 19:58:16 10° NNW visible
27 Oct 2.9 19:11:27 10° SSE 19:16:30 72° ENE 19:21:35 10° N visible
27 Oct 6.1 20:53:32 10° WSW 20:56:03 14° W 20:58:35 10° WNW visible
28 Oct 5.9 07:20:13 10° NE 07:24:16 23° E 07:28:18 10° SE visible
28 Oct 4.9 20:14:30 10° SSW 20:18:55 30° W 20:23:23 10° NW visible
29 Oct 6.7 06:46:32 10° E 06:47:05 10° E 06:47:36 10° E visible
29 Oct 3.4 19:36:58 10° S 19:42:00 66° WSW 19:47:04 10° NNW visible
30 Oct 3.0 19:00:19 10° SSE 19:05:16 57° ENE 19:10:16 10° N visible
30 Oct 5.8 20:41:20 10° SW 20:44:39 17° W 20:48:01 10° NW visible
31 Oct 6.0 07:09:22 10° NE 07:12:54 19° E 07:16:25 10° SE visible
31 Oct 4.5 20:02:54 10° SSW 20:07:35 38° W 20:12:19 10° NNW visible
01 Nov 3.1 19:25:39 10° SSE 19:30:43 83° WSW 19:35:50 10° NNW visible
